Regional Weather Roundup
Issued by NWS Upton, NY

Current Version | Previous Version | Text Only | Print | Product List | Glossary On
Versions: 1 2 3 4 5 6 7 8 9 10 11 12 13 14 15 16 17 18 19 20 21 22 23 24 25 26 27 28 29 30 31 32 33 34 35 36 37 38 39 40 41 42 43 44 45 46 47 48 49 50
118
ASUS41 KOKX 131404
RWROKX

REGIONAL WEATHER ROUNDUP
NATIONAL WEATHER SERVICE NEW YORK NY
900 AM EST SAT FEB 13 2016

NOTE: "FAIR" INDICATES FEW OR NO CLOUDS BELOW 12,000 FEET WITH NO
SIGNIFICANT WEATHER AND/OR OBSTRUCTIONS TO VISIBILITY.

NYZ071-072-176-178-NJZ106-104-131500-
NEW YORK CITY METRO AREA


CITY           SKY/WX    TMP DP  RH WIND       PRES   REMARKS
CENTRAL PARK   SUNNY     21   0  39 NW15G25   30.00R WCI   8
LAGUARDIA APRT MOSUNNY   23   5  46 NW21      29.99R WCI   8
KENNEDY INTL   MOSUNNY   23   0  36 NW22G33   30.00R WCI   8
NEWARK/LIBERTY MOSUNNY   24   3  40 NW24G30   30.01R WCI   8
BRNX BOT. GARD   N/A     23   1  39 NW3       30.01R
TETERBORO      MOSUNNY   22   1  40 NW17G33   30.00R WCI   8
$$

NYZ177-179-078>081-131500-
LONG ISLAND NEW YORK

CITY           SKY/WX    TMP DP  RH WIND       PRES   REMARKS
FARMINGDALE    SUNNY     23   0  36 NW24G32   29.96R WCI   7
ISLIP          PTSUNNY   22   9  57 NW18G29   29.93R WCI   7
SHIRLEY        MIX PCPN  22   9  57 N17       29.94R WCI   8
RIVERHEAD        N/A     25   3  39 E8        29.91R WCI  16
WESTHAMPTON    MIX PCPN  21  10  62 NW25G32   29.93R WCI   4
EAST HAMPTON   CLOUDY    21   9  58 NW26G32   29.90R WCI   4
MONTAUK POINT    N/A     23  11  60 NW17G29   29.90R WCI   9
$$

NYZ052-065-067-131500-
HUDSON VALLEY

CITY           SKY/WX    TMP DP  RH WIND       PRES   REMARKS
WHITE PLAINS   MOSUNNY   19   0  43 NW23G35   29.94R WCI   2
NEWBURGH       NOT AVBL
MONTGOMERY     PTSUNNY   17  -1  45 NW21G36   29.97R WCI   0
POUGHKEEPSIE   PTSUNNY   20  -2  38 W15       29.97R WCI   6
ALBANY         MOSUNNY   13  -3  49 W17       29.98R WCI  -4
$$

NJZ001-105-106-008-010-013-015-019>022-104-131500-
NEW JERSEY

CITY           SKY/WX    TMP DP  RH WIND       PRES   REMARKS
NEWARK/LIBERTY MOSUNNY   24   3  40 NW24G30   30.01R WCI   8
TETERBORO      MOSUNNY   22   1  40 NW17G33   30.00R WCI   8
CALDWELL       PTSUNNY   20   2  45 N10G20    30.01R WCI   9
MORRISTOWN     MOSUNNY   19   9  63 N12G25    30.01R WCI   7
SOMERVILLE     SUNNY     21   2  43 NW13G21   30.02R WCI   9
SUSSEX         MOSUNNY   17   0  47 N10G17    29.99R WCI   5
ANDOVER          N/A     16   4  59 N10G17    30.00R WCI   4
TRENTON        SUNNY     21  -1  38 NW15G25   30.05R WCI   8
MILLVILLE      SUNNY     23   4  44 NW21G30   30.11R WCI   8
ATLANTIC CITY  SUNNY     24   5  44 NW29G37   30.07R WCI   7
WRIGHTSTOWN    SUNNY     22   6  49 NW13      30.02R WCI  10
TOMS RIVER     SUNNY     21   9  58 NW21G30   30.04R WCI   6
BELMAR         MOSUNNY   23   1  39 NW16G30   30.00R WCI  10
$$

PAZ047>061-062-071-131500-
EASTERN PENNSYLVANIA

CITY           SKY/WX    TMP DP  RH WIND       PRES   REMARKS
PHILADELPHIA   MOSUNNY   22  -1  36 NW22G33   30.11R WCI   6
ALLENTOWN      SUNNY     18  -4  37 W17G24    30.06R WCI   3
SCRANTON       PTSUNNY   11  -1  58 NW15G24   30.03R WCI  -5
$$

CTZ002-004>006-009-010-012-RIZ004-006-007-MAZ004-011-015-131500-
SOUTHERN NEW ENGLAND
 IN CT

CITY           SKY/WX    TMP DP  RH WIND       PRES   REMARKS
BRADLEY INTL   PTSUNNY   18   2  49 NW8       29.90R WCI   8
HARTFORD       PTSUNNY   20   4  50 NW9       29.92R WCI   9
DANBURY        SUNNY     20  -1  40 NW12G24   29.92S WCI   8
WTRBRY/OXFORD  MOSUNNY   18  -2  41 NW9G21    29.88R WCI   6
BRIDGEPORT     PTSUNNY   21  12  68 NW13      29.94R WCI   9
MERIDEN        MOSUNNY   20   2  45 NW13G21   29.92R WCI   7
NEW HAVEN      PTSUNNY   20   7  57 NW10      29.93R WCI   9
CHESTER        FAIR      21   5  49 NW16G23   29.88R WCI   7
GROTON         MOSUNNY   20  11  68 NW17G25   29.89R WCI   5
WILLIMANTIC    SUNNY     20   7  57 NW9       29.87R WCI   9

 IN RI

CITY           SKY/WX    TMP DP  RH WIND       PRES   REMARKS
PROVIDENCE     PTSUNNY   20   8  60 NW13G21   29.85R WCI   7
BLOCK ISLAND   PTSUNNY   21  12  68 NW16G23   29.84R WCI   7
WESTERLY       PTSUNNY   21  10  62 NW8       29.88R WCI  11

 IN MA

CITY           SKY/WX    TMP DP  RH WIND       PRES   REMARKS
BOSTON         CLOUDY    21   7  54 NW13G21   29.82R WCI   9
WORCESTER      MOSUNNY   15   5  64 NW14      29.77R WCI   0
WESTFIELD      PTSUNNY   17  -1  45 NW15G24   29.89R WCI   2
PROVINCETOWN   PTSUNNY   23  16  74 W15G24    29.78S WCI  10
NANTUCKET      CLOUDY    25  12  58 NW13      29.79R WCI  14
$$

ANZ330-335-338-340-345-350-353-355-131500-
COASTAL MARINE OBSERVATIONS


STATION/POSITION TIME  SKY/WX   TEMP    WIND        PRES    VSBY  WAVE
                                AIR SEA DIR/SP/G                  HT/PER
                 (UTC)          (F)     (DEG/KT/KT) (MB)    (MI)  (FT/S)
NY HARB ENTRANCE 1250            25 43  310/ 27/ 33 1013.8          4/ 4
4S FIRE IS       NOT AVBL
20S FIRE ISLAND  1250            26 41  310/ 25/ 31 1012.7          6/ 6
GREAT SOUTH BAY  NOT AVBL
23SW MTP         1350            25 44  310/ 19/ 25 1011.5          4/ 6
HUDSON CANYON    1250            30 48              1011.6          9/ 7
KINGS POINT      1300            22 36  360/ 27/ 34 1014.1
EXECUTION ROCKS  NOT AVBL
CENTRAL LI SOUND 1300            23     310/ 17/ 23   N/A           3/ 4
EASTERN LI SOUND 1300            23 40  290/ 16/ 19   N/A
ROBBINS REEF     1300            22     320/ 17/ 19 1014.7
$$


>>>>>>>>>>>>>>>>>>>>>>>>>>>> KEY <<<<<<<<<<<<<<<<<<<<<<<<<<<
>                                                          <
>     SKY/WX - SKY CONDITION/PRESENT WEATHER               <
>     TMP    - TEMPERATURE IN FAHRENHEIT                   <
>     DP     - DEWPOINT IN FAHRENHEIT                      <
>     RH     - RELATIVE HUMIDITY IN PERCENT                <
>     WIND   - DIRECTION AND SPEED IN MPH                  <
>     PRES   - MEAN SEA LEVEL PRESSURE IN INCHES OF HG     <
>     WCI    - WIND CHILL INDEX                            <
>     VSB    - VISIBILITY IN MILES                         <
>     HX     - HEAT INDEX                                  <
>     TC     - TEMPERATURE IN CELSIUS                      <
>     VRB    - VARIABLE WIND DIRECTION                     <
>                                                          <
>>>>>>>>>>>>>>>>>>>>>>>>>>>> KEY <<<<<<<<<<<<<<<<<<<<<<<<<<<






USA.gov is the U.S. government's official web portal to all federal, state and local government web resources and services.